Time,TemperatureF,DewpointF,PressureIn,WindDirection,WindDirectionDegrees,WindSpeedMPH,WindSpeedGustMPH,Humidity,HourlyPrecipIn,Conditions,Clouds,dailyrainin,SolarRadiationWatts/m^2,SoftwareType,DateUTC
2013-09-14 00:04:00,58.0,57.0,-100.00,NW,321,2.0,6.0,98,0.00,,,1.80,0.000000,,2013-09-14 04:04:00,
2013-09-14 00:14:00,58.0,57.0,-100.00,NW,321,2.0,6.0,98,0.00,,,1.80,0.000000,,2013-09-14 04:14:00,
2013-09-14 00:24:00,58.0,57.0,-100.00,NW,321,2.0,6.0,98,0.00,,,1.80,0.000000,,2013-09-14 04:24:00,
2013-09-14 00:54:00,57.0,56.0,-100.00,NW,323,3.0,6.0,98,0.00,,,1.44,0.000000,,2013-09-14 04:54:00,
2013-09-14 01:03:00,57.0,56.0,-100.00,NW,323,3.0,6.0,98,0.00,,,1.44,0.000000,,2013-09-14 05:03:00,
2013-09-14 01:13:00,57.0,56.0,-100.00,NW,323,3.0,6.0,98,0.00,,,1.44,0.000000,,2013-09-14 05:13:00,
2013-09-14 01:22:00,57.0,56.0,-100.00,NW,323,3.0,6.0,98,0.00,,,1.44,0.000000,,2013-09-14 05:22:00,
2013-09-14 01:53:00,57.0,56.0,-100.00,NW,316,3.0,7.0,97,0.00,,,1.37,0.000000,,2013-09-14 05:53:00,
2013-09-14 02:02:00,57.0,56.0,-100.00,NW,316,3.0,7.0,97,0.00,,,1.37,0.000000,,2013-09-14 06:02:00,
2013-09-14 02:12:00,57.0,56.0,-100.00,NW,316,3.0,7.0,97,0.00,,,1.37,0.000000,,2013-09-14 06:12:00,
2013-09-14 02:22:00,57.0,56.0,-100.00,NW,316,3.0,7.0,97,0.00,,,1.37,0.000000,,2013-09-14 06:22:00,
2013-09-14 02:52:00,57.0,56.0,-100.00,NW,315,2.0,7.0,97,0.00,,,1.37,0.000000,,2013-09-14 06:52:00,
2013-09-14 03:02:00,57.0,56.0,-100.00,NW,315,2.0,7.0,97,0.00,,,1.37,0.000000,,2013-09-14 07:02:00,
2013-09-14 03:12:00,57.0,56.0,-100.00,NW,315,2.0,7.0,97,0.00,,,1.37,0.000000,,2013-09-14 07:12:00,
2013-09-14 03:22:00,57.0,56.0,-100.00,NW,315,2.0,7.0,97,0.00,,,1.37,0.000000,,2013-09-14 07:22:00,
2013-09-14 03:52:00,57.0,56.0,-100.00,NW,317,2.0,6.0,96,0.00,,,1.37,0.000000,,2013-09-14 07:52:00,
2013-09-14 04:02:00,57.0,56.0,-100.00,NW,317,2.0,6.0,96,0.00,,,1.37,0.000000,,2013-09-14 08:02:00,
2013-09-14 04:12:00,57.0,56.0,-100.00,NW,317,2.0,6.0,96,0.00,,,1.37,0.000000,,2013-09-14 08:12:00,
2013-09-14 04:22:00,57.0,56.0,-100.00,NW,317,2.0,6.0,96,0.00,,,1.37,0.000000,,2013-09-14 08:22:00,
2013-09-14 04:52:00,56.0,55.0,-100.00,NNW,338,2.0,5.0,97,0.00,,,1.37,0.000000,,2013-09-14 08:52:00,
2013-09-14 05:02:00,56.0,55.0,-100.00,NNW,338,2.0,5.0,97,0.00,,,1.37,0.000000,,2013-09-14 09:02:00,
2013-09-14 05:12:00,56.0,55.0,-100.00,NNW,338,2.0,5.0,97,0.00,,,1.37,0.000000,,2013-09-14 09:12:00,
2013-09-14 05:22:00,56.0,55.0,-100.00,NNW,338,2.0,5.0,97,0.00,,,1.37,0.000000,,2013-09-14 09:22:00,
2013-09-14 05:54:00,57.0,56.0,-100.00,NW,323,2.0,8.0,97,0.00,,,1.37,0.000000,,2013-09-14 09:54:00,
2013-09-14 06:03:00,57.0,56.0,-100.00,NW,323,2.0,8.0,97,0.00,,,1.37,0.000000,,2013-09-14 10:03:00,
2013-09-14 06:13:00,57.0,56.0,-100.00,NW,323,2.0,8.0,97,0.00,,,1.37,0.000000,,2013-09-14 10:13:00,
2013-09-14 06:23:00,57.0,56.0,-100.00,NW,323,2.0,8.0,97,0.00,,,1.37,0.000000,,2013-09-14 10:23:00,
2013-09-14 06:53:00,56.0,55.0,-100.00,WNW,290,2.0,6.0,97,0.02,,,1.36,1.000000,,2013-09-14 10:53:00,
2013-09-14 07:02:00,56.0,55.0,-100.00,WNW,290,2.0,6.0,97,0.02,,,1.36,1.000000,,2013-09-14 11:02:00,
2013-09-14 07:12:00,56.0,55.0,-100.00,WNW,290,2.0,6.0,97,0.02,,,1.36,1.000000,,2013-09-14 11:12:00,
2013-09-14 07:22:00,56.0,55.0,-100.00,WNW,290,2.0,6.0,97,0.02,,,1.36,1.000000,,2013-09-14 11:22:00,
2013-09-14 07:52:00,58.0,57.0,-100.00,WNW,294,3.0,8.0,96,0.00,,,1.33,44.000000,,2013-09-14 11:52:00,
2013-09-14 08:02:00,58.0,57.0,-100.00,WNW,294,3.0,8.0,96,0.00,,,1.33,44.000000,,2013-09-14 12:02:00,
2013-09-14 08:12:00,58.0,57.0,-100.00,WNW,294,3.0,8.0,96,0.00,,,1.33,44.000000,,2013-09-14 12:12:00,
2013-09-14 08:22:00,58.0,57.0,-100.00,WNW,294,3.0,8.0,96,0.00,,,1.33,44.000000,,2013-09-14 12:22:00,
2013-09-14 08:53:00,59.0,57.0,-100.00,NW,314,2.0,7.0,93,0.00,,,1.32,127.000000,,2013-09-14 12:53:00,
2013-09-14 09:01:00,59.0,57.0,-100.00,NW,314,2.0,7.0,93,0.00,,,1.32,127.000000,,2013-09-14 13:01:00,
2013-09-14 09:12:00,59.0,57.0,-100.00,NW,314,2.0,7.0,93,0.00,,,1.32,127.000000,,2013-09-14 13:12:00,
2013-09-14 09:21:00,59.0,57.0,-100.00,NW,314,2.0,7.0,93,0.00,,,1.32,127.000000,,2013-09-14 13:21:00,
2013-09-14 09:52:00,61.0,58.0,-100.00,NNW,327,4.0,8.0,90,0.00,,,1.29,127.000000,,2013-09-14 13:52:00,
2013-09-14 10:02:00,61.0,58.0,-100.00,NNW,327,4.0,8.0,90,0.00,,,1.29,127.000000,,2013-09-14 14:02:00,
2013-09-14 10:12:00,61.0,58.0,-100.00,NNW,327,4.0,8.0,90,0.00,,,1.29,127.000000,,2013-09-14 14:12:00,
2013-09-14 10:22:00,61.0,58.0,-100.00,NNW,327,4.0,8.0,90,0.00,,,1.29,127.000000,,2013-09-14 14:22:00,
2013-09-14 10:52:00,66.0,58.0,-100.00,NW,326,4.0,9.0,76,0.00,,,1.28,449.000000,,2013-09-14 14:52:00,
2013-09-14 11:02:00,66.0,58.0,-100.00,NW,326,4.0,9.0,76,0.00,,,1.28,449.000000,,2013-09-14 15:02:00,
2013-09-14 11:11:00,66.0,58.0,-100.00,NW,326,4.0,9.0,76,0.00,,,1.28,449.000000,,2013-09-14 15:11:00,
2013-09-14 11:22:00,66.0,58.0,-100.00,NW,326,4.0,9.0,76,0.00,,,1.28,449.000000,,2013-09-14 15:22:00,
2013-09-14 11:53:00,68.0,57.0,-100.00,WNW,300,4.0,10.0,69,0.00,,,1.28,600.000000,,2013-09-14 15:53:00,
2013-09-14 12:04:00,68.0,57.0,-100.00,WNW,300,4.0,10.0,69,0.00,,,1.28,600.000000,,2013-09-14 16:04:00,
2013-09-14 12:14:00,68.0,57.0,-100.00,WNW,300,4.0,10.0,69,0.00,,,1.28,600.000000,,2013-09-14 16:14:00,
2013-09-14 12:23:00,68.0,57.0,-100.00,WNW,300,4.0,10.0,69,0.00,,,1.28,600.000000,,2013-09-14 16:23:00,
2013-09-14 12:54:00,70.0,58.0,-100.00,WSW,257,5.0,10.0,65,0.00,,,1.28,493.000000,,2013-09-14 16:54:00,
2013-09-14 13:04:00,70.0,58.0,-100.00,WSW,257,5.0,10.0,65,0.00,,,1.28,493.000000,,2013-09-14 17:04:00,
2013-09-14 13:11:00,70.0,58.0,-100.00,WSW,257,5.0,10.0,65,0.00,,,1.28,493.000000,,2013-09-14 17:11:00,
2013-09-14 13:23:00,70.0,58.0,-100.00,WSW,257,5.0,10.0,65,0.00,,,1.28,493.000000,,2013-09-14 17:23:00,
2013-09-14 13:54:00,72.0,55.0,-100.00,WSW,241,5.0,12.0,56,0.00,,,1.28,546.000000,,2013-09-14 17:54:00,
2013-09-14 14:02:00,72.0,55.0,-100.00,WSW,241,5.0,12.0,56,0.00,,,1.28,546.000000,,2013-09-14 18:02:00,
2013-09-14 14:12:00,72.0,55.0,-100.00,WSW,241,5.0,12.0,56,0.00,,,1.28,546.000000,,2013-09-14 18:12:00,
2013-09-14 14:22:00,72.0,55.0,-100.00,WSW,241,5.0,12.0,56,0.00,,,1.28,546.000000,,2013-09-14 18:22:00,
2013-09-14 14:52:00,73.0,55.0,-100.00,West,262,5.0,12.0,53,0.00,,,1.28,752.000000,,2013-09-14 18:52:00,
2013-09-14 15:02:00,73.0,55.0,-100.00,West,262,5.0,12.0,53,0.00,,,1.28,752.000000,,2013-09-14 19:02:00,
2013-09-14 15:11:00,73.0,55.0,-100.00,West,262,5.0,12.0,53,0.00,,,1.28,752.000000,,2013-09-14 19:11:00,
2013-09-14 15:22:00,73.0,55.0,-100.00,West,262,5.0,12.0,53,0.00,,,1.28,752.000000,,2013-09-14 19:22:00,
2013-09-14 15:52:00,72.0,54.0,-100.00,WSW,257,4.0,13.0,54,0.00,,,1.18,530.000000,,2013-09-14 19:52:00,
2013-09-14 16:02:00,72.0,54.0,-100.00,WSW,257,4.0,13.0,54,0.00,,,1.18,530.000000,,2013-09-14 20:02:00,
2013-09-14 16:12:00,72.0,54.0,-100.00,WSW,257,4.0,13.0,54,0.00,,,1.18,530.000000,,2013-09-14 20:12:00,
2013-09-14 16:22:00,72.0,54.0,-100.00,WSW,257,4.0,13.0,54,0.00,,,1.18,530.000000,,2013-09-14 20:22:00,
2013-09-14 16:52:00,73.0,55.0,-100.00,WNW,283,5.0,13.0,53,0.00,,,1.16,449.000000,,2013-09-14 20:52:00,
2013-09-14 17:02:00,73.0,55.0,-100.00,WNW,283,5.0,13.0,53,0.00,,,1.16,449.000000,,2013-09-14 21:02:00,
2013-09-14 17:12:00,73.0,55.0,-100.00,WNW,283,5.0,13.0,53,0.00,,,1.16,449.000000,,2013-09-14 21:12:00,
2013-09-14 17:22:00,73.0,55.0,-100.00,WNW,283,5.0,13.0,53,0.00,,,1.16,449.000000,,2013-09-14 21:22:00,
2013-09-14 17:54:00,70.0,54.0,-100.00,WNW,297,5.0,12.0,56,0.00,,,0.10,280.000000,,2013-09-14 21:54:00,
2013-09-14 18:04:00,70.0,54.0,-100.00,WNW,297,5.0,12.0,56,0.00,,,0.10,280.000000,,2013-09-14 22:04:00,
2013-09-14 18:13:00,70.0,54.0,-100.00,WNW,297,5.0,12.0,56,0.00,,,0.10,280.000000,,2013-09-14 22:13:00,
2013-09-14 18:24:00,70.0,54.0,-100.00,WNW,297,5.0,12.0,56,0.00,,,0.10,280.000000,,2013-09-14 22:24:00,
2013-09-14 18:53:00,63.0,52.0,-100.00,WNW,288,3.0,10.0,67,0.00,,,0.02,39.000000,,2013-09-14 22:53:00,
2013-09-14 19:03:00,63.0,52.0,-100.00,WNW,288,3.0,10.0,67,0.00,,,0.02,39.000000,,2013-09-14 23:03:00,
2013-09-14 19:12:00,63.0,52.0,-100.00,WNW,288,3.0,10.0,67,0.00,,,0.02,39.000000,,2013-09-14 23:12:00,
2013-09-14 19:23:00,63.0,52.0,-100.00,WNW,288,3.0,10.0,67,0.00,,,0.02,39.000000,,2013-09-14 23:23:00,
2013-09-14 19:53:00,59.0,52.0,-100.00,NW,315,3.0,9.0,77,0.00,,,0.02,5.000000,,2013-09-14 23:53:00,
2013-09-14 20:02:00,59.0,52.0,-100.00,NW,315,3.0,9.0,77,0.00,,,0.02,5.000000,,2013-09-15 00:02:00,
2013-09-14 20:12:00,59.0,52.0,-100.00,NW,315,3.0,9.0,77,0.00,,,0.02,5.000000,,2013-09-15 00:12:00,
2013-09-14 20:22:00,59.0,52.0,-100.00,NW,315,3.0,9.0,77,0.00,,,0.02,5.000000,,2013-09-15 00:22:00,
2013-09-14 20:53:00,56.0,51.0,-100.00,NW,310,3.0,8.0,82,0.00,,,0.02,0.000000,,2013-09-15 00:53:00,
2013-09-14 21:01:00,56.0,51.0,-100.00,NW,310,3.0,8.0,82,0.00,,,0.02,0.000000,,2013-09-15 01:01:00,
2013-09-14 21:11:00,56.0,51.0,-100.00,NW,310,3.0,8.0,82,0.00,,,0.02,0.000000,,2013-09-15 01:11:00,
2013-09-14 21:22:00,56.0,51.0,-100.00,NW,310,3.0,8.0,82,0.00,,,0.02,0.000000,,2013-09-15 01:22:00,
2013-09-14 21:52:00,57.0,51.0,-100.00,WNW,301,3.0,7.0,79,0.00,,,0.02,0.000000,,2013-09-15 01:52:00,
2013-09-14 22:03:00,57.0,51.0,-100.00,WNW,301,3.0,7.0,79,0.00,,,0.02,0.000000,,2013-09-15 02:03:00,
2013-09-14 22:12:00,57.0,51.0,-100.00,WNW,301,3.0,7.0,79,0.00,,,0.02,0.000000,,2013-09-15 02:12:00,
2013-09-14 22:22:00,57.0,51.0,-100.00,WNW,301,3.0,7.0,79,0.00,,,0.02,0.000000,,2013-09-15 02:22:00,
2013-09-14 22:52:00,58.0,50.0,-100.00,NW,312,3.0,6.0,75,0.00,,,0.02,0.000000,,2013-09-15 02:52:00,
2013-09-14 23:02:00,58.0,50.0,-100.00,NW,312,3.0,6.0,75,0.00,,,0.02,0.000000,,2013-09-15 03:02:00,
2013-09-14 23:11:00,58.0,50.0,-100.00,NW,312,3.0,6.0,75,0.00,,,0.02,0.000000,,2013-09-15 03:11:00,
2013-09-14 23:22:00,58.0,50.0,-100.00,NW,312,3.0,6.0,75,0.00,,,0.02,0.000000,,2013-09-15 03:22:00,
2013-09-14 23:55:00,56.0,50.0,-100.00,NNW,329,1.0,5.0,80,0.00,,,0.02,0.000000,,2013-09-15 03:55:00,